Date String (YYYY-MM-DD hh:mm:ss) UTC,Instrument flags,Ambient pressure (hPa),Sample flow (lpm),Bypass flow (lpm),Sample temperature (°C),Ambient temperature (°C),ASC tube jacket temperature (°C),LED temperature (°C),Box temperature (°C),Sample RH (%),Span deviation,Mass concentration (μg/m³),Mass concentration (μg/m³),Mass concentration (μg/m³)
DateTimeUTC,F1_M11,P_M11,Q1_M11,Q2_M11,T1_M11,T2_M11,T3_M11,T4_M11,T5_M11,U1_M11,ZSPAN_M11,X0_M11,X2_M11,X1_M11
2022-03-30 02:00:00,,0815.1,4.99,0.00,25.4,24.5,00.0,34.6,27.2,17.6,0000.0,0002.41,0000.58,0000.34
2022-03-30 02:01:00,,0815.1,5.00,0.00,25.4,24.5,00.0,34.6,27.2,17.7,0000.0,0002.42,0000.59,0000.34
2022-03-30 02:02:00,,0815.2,5.00,0.00,25.4,24.5,00.0,34.6,27.2,17.7,0000.0,0002.50,0000.60,0000.33
2022-03-30 02:03:00,,0815.1,5.00,0.00,25.4,24.5,00.0,34.6,27.1,17.7,0000.0,0002.53,0000.61,0000.33
2022-03-30 02:04:00,,0815.1,4.99,0.00,25.4,24.5,00.0,34.6,27.1,17.7,0000.0,0001.59,0000.60,0000.33
2022-03-30 02:05:00,,0815.3,5.00,0.00,25.4,24.5,00.0,34.5,27.1,17.8,0000.0,0001.24,0000.60,0000.33
2022-03-30 02:06:00,,0815.1,4.99,0.00,25.4,24.5,00.0,34.5,27.2,17.7,0000.0,0001.18,0000.59,0000.32
2022-03-30 02:07:00,,0815.2,4.99,0.00,25.4,24.5,00.0,34.5,27.1,17.6,0000.0,0001.05,0000.56,0000.31
2022-03-30 02:08:00,,0815.2,4.99,0.00,25.4,24.5,00.0,34.5,27.2,17.5,0000.0,0000.98,0000.54,0000.31
2022-03-30 02:09:00,,0815.2,4.99,0.00,25.4,24.5,00.0,34.5,27.1,17.4,0000.0,0000.91,0000.51,0000.31
2022-03-30 02:10:00,,0815.2,5.00,0.00,25.4,24.4,00.0,34.5,27.1,17.3,0000.0,0000.86,0000.49,0000.30
2022-03-30 02:11:00,,0815.3,5.01,0.00,25.3,24.4,00.0,34.5,27.1,17.3,0000.0,0000.79,0000.46,0000.30
2022-03-30 02:12:00,,0815.3,5.00,0.00,25.3,24.4,00.0,34.5,27.1,17.3,0000.0,0000.92,0000.46,0000.29
2022-03-30 02:13:00,,0815.4,4.99,0.00,25.3,24.4,00.0,34.5,27.1,17.2,0000.0,0002.05,0000.48,0000.29
2022-03-30 02:14:00,,0815.4,4.99,0.00,25.3,24.4,00.0,34.4,27.0,17.2,0000.0,0002.62,0000.45,0000.29
2022-03-30 02:15:00,,0815.4,5.00,0.00,25.3,24.4,00.0,34.4,27.0,17.3,0000.0,0002.56,0000.43,0000.28
2022-03-30 02:16:00,,0815.7,5.01,0.00,25.3,24.4,00.0,34.4,27.1,17.3,0000.0,0002.57,0000.43,0000.28
2022-03-30 02:17:00,,0816.0,5.00,0.00,25.3,24.4,00.0,34.4,27.1,17.3,0000.0,0002.62,0000.44,0000.28
2022-03-30 02:18:00,,0816.0,4.99,0.00,25.3,24.4,00.0,34.4,27.1,17.1,0000.0,0002.65,0000.44,0000.28
2022-03-30 02:19:00,,0816.0,4.99,0.00,25.3,24.4,00.0,34.4,27.1,17.1,0000.0,0002.64,0000.43,0000.27
2022-03-30 02:20:00,,0816.0,5.00,0.00,25.3,24.4,00.0,34.4,27.1,17.1,0000.0,0002.63,0000.43,0000.27
2022-03-30 02:21:00,,0815.7,5.02,0.00,25.3,24.4,00.0,34.4,27.1,17.1,0000.0,0002.60,0000.42,0000.28
2022-03-30 02:22:00,,0815.7,4.99,0.00,25.3,24.4,00.0,34.4,27.1,17.1,0000.0,0002.66,0000.45,0000.29
2022-03-30 02:23:00,,0815.7,5.00,0.00,25.3,24.5,00.0,34.4,27.1,17.1,0000.0,0002.60,0000.47,0000.30
2022-03-30 02:24:00,,0815.7,5.00,0.00,25.3,24.5,00.0,34.4,27.1,17.1,0000.0,0001.36,0000.44,0000.30
2022-03-30 02:25:00,,0815.7,4.99,0.00,25.3,24.4,00.0,34.4,27.1,17.0,0000.0,0000.84,0000.43,0000.30
2022-03-30 02:26:00,,0815.7,5.00,0.00,25.3,24.4,00.0,34.4,27.1,16.9,0000.0,0001.56,0000.45,0000.30
2022-03-30 02:27:00,,0815.8,5.01,0.00,25.3,24.4,00.0,34.4,27.1,16.9,0000.0,0001.53,0000.45,0000.31
2022-03-30 02:28:00,,0815.8,5.00,0.00,25.3,24.4,00.0,34.4,27.1,17.1,0000.0,0001.49,0000.44,0000.31
2022-03-30 02:29:00,,0815.8,4.99,0.00,25.3,24.4,00.0,34.4,27.1,17.0,0000.0,0001.50,0000.44,0000.32
2022-03-30 02:30:00,,0815.8,5.00,0.00,25.3,24.4,00.0,34.4,27.1,16.9,0000.0,0001.52,0000.45,0000.32
2022-03-30 02:31:00,,0815.9,5.00,0.00,25.3,24.4,00.0,34.4,27.1,17.0,0000.0,0002.29,0000.46,0000.32
2022-03-30 02:32:00,,0815.9,5.00,0.00,25.3,24.4,00.0,34.4,27.1,17.0,0000.0,0002.67,0000.46,0000.33
2022-03-30 02:33:00,,0816.0,5.00,0.00,25.3,24.4,00.0,34.4,27.1,16.8,0000.0,0002.62,0000.44,0000.33
2022-03-30 02:34:00,,0815.9,5.02,0.00,25.3,24.4,00.0,34.4,27.0,16.8,0000.0,0002.58,0000.44,0000.33
2022-03-30 02:35:00,,0816.0,5.00,0.00,25.3,24.4,00.0,34.4,27.0,16.8,0000.0,0002.61,0000.45,0000.33
2022-03-30 02:36:00,,0816.0,4.99,0.00,25.3,24.4,00.0,34.3,27.0,16.9,0000.0,0002.52,0000.47,0000.34
2022-03-30 02:37:00,,0816.0,5.00,0.00,25.3,24.4,00.0,34.3,27.1,16.8,0000.0,0001.87,0000.45,0000.35
2022-03-30 02:38:00,,0816.0,4.99,0.00,25.3,24.4,00.0,34.3,27.0,16.7,0000.0,0001.95,0000.46,0000.35
2022-03-30 02:39:00,,0816.2,5.01,0.00,25.3,24.4,00.0,34.3,27.0,16.8,0000.0,0001.97,0000.46,0000.36
2022-03-30 02:40:00,,0816.4,5.01,0.00,25.3,24.3,00.0,34.3,27.0,16.9,0000.0,0001.95,0000.45,0000.36
2022-03-30 02:41:00,,0816.3,5.00,0.00,25.3,24.4,00.0,34.3,27.1,16.9,0000.0,0001.96,0000.46,0000.37
2022-03-30 02:42:00,,0816.1,5.00,0.00,25.3,24.4,00.0,34.3,27.1,16.9,0000.0,0001.49,0000.48,0000.37
2022-03-30 02:43:00,,0816.1,5.00,0.00,25.3,24.4,00.0,34.3,27.1,16.9,0000.0,0000.97,0000.50,0000.38
2022-03-30 02:44:00,,0816.2,4.99,0.00,25.3,24.4,00.0,34.3,27.1,16.8,0000.0,0001.03,0000.51,0000.38
2022-03-30 02:45:00,,0816.2,5.00,0.00,25.3,24.4,00.0,34.3,27.1,16.7,0000.0,0001.02,0000.51,0000.38
2022-03-30 02:46:00,,0816.2,5.00,0.00,25.3,24.4,00.0,34.3,27.1,16.6,0000.0,0000.98,0000.50,0000.38
2022-03-30 02:47:00,,0816.2,5.00,0.00,25.3,24.3,00.0,34.3,27.1,16.7,0000.0,0000.96,0000.49,0000.38
2022-03-30 02:48:00,,0816.3,5.01,0.00,25.3,24.3,00.0,34.3,27.1,16.6,0000.0,0000.93,0000.48,0000.37
2022-03-30 02:49:00,,0816.3,4.99,0.00,25.3,24.3,00.0,34.3,27.0,16.5,0000.0,0000.91,0000.49,0000.37
2022-03-30 02:50:00,,0816.4,5.00,0.00,25.3,24.3,00.0,34.3,27.0,16.5,0000.0,0000.87,0000.49,0000.36
2022-03-30 02:51:00,,0816.4,5.01,0.00,25.2,24.3,00.0,34.3,27.0,16.5,0000.0,0000.88,0000.49,0000.36
2022-03-30 02:52:00,,0816.4,5.00,0.00,25.3,24.3,00.0,34.3,27.1,16.5,0000.0,0000.84,0000.48,0000.36
2022-03-30 02:53:00,,0816.6,5.00,0.00,25.3,24.3,00.0,34.3,27.1,16.5,0000.0,0000.78,0000.46,0000.36
2022-03-30 02:54:00,,0816.6,5.00,0.00,25.3,24.3,00.0,34.3,27.1,16.5,0000.0,0000.73,0000.47,0000.36
2022-03-30 02:55:00,,0816.4,5.00,0.00,25.3,24.3,00.0,34.3,27.1,16.5,0000.0,0000.71,0000.48,0000.36
2022-03-30 02:56:00,,0816.5,5.00,0.00,25.3,24.4,00.0,34.3,27.1,16.5,0000.0,0000.72,0000.48,0000.36
2022-03-30 02:57:00,,0816.5,4.99,0.00,25.3,24.4,00.0,34.3,27.1,16.6,0000.0,0000.80,0000.48,0000.36
2022-03-30 02:58:00,,0816.6,5.00,0.00,25.3,24.4,00.0,34.3,27.1,16.5,0000.0,0000.84,0000.47,0000.36
2022-03-30 02:59:00,,0816.5,5.00,0.00,25.3,24.4,00.0,34.3,27.2,16.5,0000.0,0000.86,0000.48,0000.36
